Tracking 19286 objects as of 19-Nov-2018
HD Live streaming from Space Station
objects crossing your sky now

SECOR 8 (EGRS 8)

Track SECOR 8 (EGRS 8) now!
10-day predictions
SECOR 8 (EGRS 8) is classified as:


NORAD ID: 2520
Int'l Code: 1966-089B
Perigee: 3,684.9 km
Apogee: 3,716.6 km
Inclination: 89.7 °
Period: 167.7 minutes
Semi major axis: 10071 km
RCS: 0.3272 m2 (medium)
Launch date: October 5, 1966
Source: United States (US)
Launch site: AIR FORCE WESTERN TEST RANGE (AFWTR)
aabbcc
Your satellite tracking list
Your tracking list is empty




NASA's NSSDC Master Catalog

Two Line Element Set (TLE):
1  2520U 66089B   18322.70705033 -.00000002 +00000-0 -17353-2 0  9994
2  2520 089.6940 055.0133 0015757 190.3031 169.7498 08.58902865144336
Source of the keplerian elements: AFSPC